San Louis Obispo

Airport
ICAO code: 
KSBP
Summary
ICAO Region: 
NAM
Territory: 
Location: 
San Luis Obispo, California,
Serving: 
San Luis Obispo County
Coordinates: 
Aerial View: 
35° 14' 15.624" N, 120° 38' 27.85" W
Metar
Observation
KSBP 020156Z 31013KT 10SM CLR 17/11 A2997 RMK AO2 SLP147 T01670106 $
Station
San Luis Obispo, San Luis Obispo County-Mc Chesney Field
Date/Time
2022-07-02 01:56:00
Wind direction
310°
Wind speed
13 kts
Lowest cloud amount
n/a
Temperature
16.7°C
Dew point
10.6°C
Humidity
67%
Weather condition
n/a

Description

San Luis Obispo County Regional Airport (IATA: SBP), also known as McChesney Field, is an airport located in San Luis Obispo, California serving San Luis Obispo County.

Climatology

Dry-summer subtropical ”Mediterranean" climate (Köppen climate classification Csb) - characterized by warm, dry summers and mild winters.

Runways

Designator Length Width Surface Rops
7/25 994 30 ASP Yes/Yes
11/29 1615 46 ASP Yes/Yes
Airport map: 
Aerial View: 

SKYbrary Partners:

Safety knowledge contributed by: